Date String (YYYY-MM-DD hh:mm:ss) UTC,Instrument flags,absolute air pressure of the measurement (hPa),sample flow rate (lpm),inlet stack bypass flow (lpm),air temperature of the measurement (°C),ambient temperature measured by the external sensor (°C),aerosol sample conditioner tube jacket temperature (°C),OPC LED temperature (°C),internal box temperature (°C),relative humidity of the measurement (%),span deviation,mass concentration of particles derived from Lorenz-Mie calculation of OPC scattering (μg/m³),mass concentration of particles derived from Lorenz-Mie calculation of OPC scattering (μg/m³),mass concentration of particles derived from Lorenz-Mie calculation of OPC scattering (μg/m³)
DateTimeUTC,F1_M11,P_M11,Q1_M11,Q2_M11,T1_M11,T2_M11,T3_M11,T4_M11,T5_M11,U1_M11,ZSPAN_M11,X0_M11,X2_M11,X1_M11
2023-09-30 05:00:00,SystemResetWarning,0828.6,5.00,000.00,028.5,027.5,000.0,036.8,030.4,19.3,0000.0,0025.46,0006.36,0004.31
2023-09-30 05:01:00,SystemResetWarning,0828.6,5.00,000.00,028.5,026.0,000.0,036.8,030.3,19.0,0000.0,0026.45,0006.37,0004.31
2023-09-30 05:02:00,SystemResetWarning,0828.6,5.00,000.00,028.4,024.6,000.0,036.7,030.1,19.0,0000.0,0026.77,0006.38,0004.32
2023-09-30 05:03:00,SystemResetWarning,0828.6,5.00,000.00,028.4,024.4,000.0,036.7,029.9,19.0,0000.0,0027.51,0006.37,0004.32
2023-09-30 05:04:00,SystemResetWarning,0828.6,5.01,000.00,028.2,024.7,000.0,036.7,029.8,19.0,0000.0,0027.16,0006.31,0004.32
2023-09-30 05:05:00,SystemResetWarning,0828.6,5.00,000.00,028.2,025.1,000.0,036.7,029.8,19.0,0000.0,0027.13,0006.23,0004.31
2023-09-30 05:06:00,SystemResetWarning,0828.6,4.99,000.00,028.2,025.4,000.0,036.7,029.8,19.1,0000.0,0027.32,0006.22,0004.30
2023-09-30 05:07:00,SystemResetWarning,0828.6,5.00,000.00,028.2,025.8,000.0,036.7,029.9,18.9,0000.0,0027.51,0006.19,0004.30
2023-09-30 05:08:00,SystemResetWarning,0828.6,5.00,000.00,028.2,026.1,000.0,036.7,029.9,18.9,0000.0,0025.68,0006.16,0004.28
2023-09-30 05:09:00,SystemResetWarning,0828.6,5.00,000.00,028.2,026.3,000.0,036.7,030.0,18.9,0000.0,0024.01,0006.14,0004.26
2023-09-30 05:10:00,SystemResetWarning,0828.6,5.00,000.00,028.2,026.5,000.0,036.7,030.0,18.9,0000.0,0024.15,0006.14,0004.25
2023-09-30 05:11:00,SystemResetWarning,0828.6,4.99,000.00,028.2,026.7,000.0,036.7,030.1,18.9,0000.0,0024.55,0006.15,0004.25
2023-09-30 05:12:00,SystemResetWarning,0828.6,5.00,000.00,028.2,026.8,000.0,036.7,030.1,18.9,0000.0,0023.45,0006.10,0004.24
2023-09-30 05:13:00,SystemResetWarning,0828.6,5.00,000.00,028.3,027.0,000.0,036.7,030.1,18.9,0000.0,0022.98,0006.12,0004.25
2023-09-30 05:14:00,SystemResetWarning,0828.6,5.00,000.00,028.3,027.1,000.0,036.8,030.2,18.8,0000.0,0021.82,0006.11,0004.25
2023-09-30 05:15:00,SystemResetWarning,0828.6,5.00,000.00,028.3,027.1,000.0,036.8,030.2,18.8,0000.0,0022.28,0006.14,0004.24
2023-09-30 05:16:00,SystemResetWarning,0828.6,5.00,000.00,028.4,027.2,000.0,036.8,030.2,18.8,0000.0,0020.95,0006.20,0004.24
2023-09-30 05:17:00,SystemResetWarning,0828.6,5.00,000.00,028.4,027.3,000.0,036.8,030.3,18.8,0000.0,0021.20,0006.21,0004.22
2023-09-30 05:18:00,SystemResetWarning,0828.6,4.99,000.00,028.4,027.4,000.0,036.8,030.3,18.7,0000.0,0021.70,0006.21,0004.22
2023-09-30 05:19:00,SystemResetWarning,0828.6,5.00,000.00,028.5,027.4,000.0,036.9,030.3,18.7,0000.0,0020.95,0006.24,0004.24
2023-09-30 05:20:00,SystemResetWarning,0828.6,5.00,000.00,028.5,027.5,000.0,036.9,030.4,18.7,0000.0,0020.96,0006.26,0004.25
2023-09-30 05:21:00,SystemResetWarning,0828.6,5.00,000.00,028.5,027.5,000.0,036.9,030.4,18.7,0000.0,0021.76,0006.23,0004.25
2023-09-30 05:22:00,SystemResetWarning,0828.7,4.99,000.00,028.6,027.4,000.0,036.9,030.4,18.6,0000.0,0020.86,0006.21,0004.25
2023-09-30 05:23:00,SystemResetWarning,0828.6,4.99,000.00,028.6,025.8,000.0,036.9,030.3,18.5,0000.0,0020.22,0006.23,0004.25
2023-09-30 05:24:00,SystemResetWarning,0828.6,5.00,000.00,028.5,024.6,000.0,036.8,030.1,18.6,0000.0,0020.25,0006.21,0004.24
2023-09-30 05:25:00,SystemResetWarning,0828.6,5.01,000.00,028.4,024.5,000.0,036.8,029.9,18.7,0000.0,0020.91,0006.17,0004.24
2023-09-30 05:26:00,SystemResetWarning,0828.6,5.01,000.00,028.3,024.8,000.0,036.8,029.8,18.9,0000.0,0021.55,0006.14,0004.24
2023-09-30 05:27:00,SystemResetWarning,0828.6,4.99,000.00,028.2,025.2,000.0,036.8,029.8,19.4,0000.0,0021.67,0006.26,0004.24
2023-09-30 05:28:00,SystemResetWarning,0828.6,4.99,000.00,028.2,025.6,000.0,036.8,029.9,19.4,0000.0,0022.50,0006.28,0004.25
2023-09-30 05:29:00,SystemResetWarning,0828.6,5.00,000.00,028.2,025.9,000.0,036.8,029.9,19.4,0000.0,0022.41,0006.33,0004.25
2023-09-30 05:30:00,SystemResetWarning,0828.6,5.01,000.00,028.2,026.2,000.0,036.8,029.9,19.6,0000.0,0022.16,0006.28,0004.24
2023-09-30 05:31:00,SystemResetWarning,0828.6,4.99,000.00,028.2,026.4,000.0,036.8,030.0,20.0,0000.0,0022.27,0006.25,0004.23
2023-09-30 05:32:00,SystemResetWarning,0828.6,4.99,000.00,028.3,026.6,000.0,036.8,030.0,20.4,0000.0,0020.21,0006.18,0004.22
2023-09-30 05:33:00,SystemResetWarning,0828.6,5.00,000.00,028.3,026.8,000.0,036.8,030.1,20.3,0000.0,0019.51,0006.14,0004.21
2023-09-30 05:34:00,SystemResetWarning,0828.6,5.00,000.00,028.3,026.9,000.0,036.8,030.1,20.0,0000.0,0020.29,0006.10,0004.19
2023-09-30 05:35:00,SystemResetWarning,0828.6,5.00,000.00,028.4,027.1,000.0,036.8,030.2,20.0,0000.0,0021.45,0006.08,0004.18
2023-09-30 05:36:00,SystemResetWarning,0828.7,5.01,000.00,028.4,027.2,000.0,036.8,030.2,20.3,0000.0,0021.52,0006.13,0004.18
2023-09-30 05:37:00,SystemResetWarning,0828.7,5.00,000.00,028.4,027.3,000.0,036.8,030.2,20.5,0000.0,0020.11,0006.13,0004.17
2023-09-30 05:38:00,SystemResetWarning,0828.6,5.00,000.00,028.5,027.3,000.0,036.9,030.3,20.5,0000.0,0020.17,0005.94,0004.15
2023-09-30 05:39:00,SystemResetWarning,0828.6,4.99,000.00,028.5,027.4,000.0,036.9,030.3,20.6,0000.0,0019.27,0005.81,0004.13
2023-09-30 05:40:00,SystemResetWarning,0828.6,4.99,000.00,028.5,027.5,000.0,036.9,030.4,20.9,0000.0,0019.61,0005.75,0004.12
2023-09-30 05:41:00,SystemResetWarning,0828.6,4.99,000.00,028.6,027.5,000.0,036.9,030.4,21.3,0000.0,0021.43,0005.75,0004.11
2023-09-30 05:42:00,SystemResetWarning,0828.6,5.00,000.00,028.6,027.6,000.0,036.9,030.4,21.4,0000.0,0022.33,0005.72,0004.11
2023-09-30 05:43:00,SystemResetWarning,0828.6,5.00,000.00,028.6,027.3,000.0,037.0,030.4,21.6,0000.0,0023.55,0005.76,0004.12
2023-09-30 05:44:00,SystemResetWarning,0828.5,5.00,000.00,028.6,025.4,000.0,036.9,030.3,22.0,0000.0,0023.79,0005.77,0004.13
2023-09-30 05:45:00,SystemResetWarning,0828.6,5.00,000.00,028.5,024.5,000.0,036.8,030.1,22.0,0000.0,0022.96,0005.79,0004.14
2023-09-30 05:46:00,SystemResetWarning,0828.6,5.01,000.00,028.4,024.5,000.0,036.8,029.9,20.7,0000.0,0021.57,0005.78,0004.14
2023-09-30 05:47:00,SystemResetWarning,0828.5,5.01,000.00,028.3,024.8,000.0,036.8,029.8,20.6,0000.0,0020.50,0005.71,0004.13
2023-09-30 05:48:00,SystemResetWarning,0828.6,5.00,000.00,028.3,025.2,000.0,036.8,029.8,21.7,0000.0,0021.62,0005.73,0004.13
2023-09-30 05:49:00,SystemResetWarning,0828.5,5.01,000.00,028.2,025.6,000.0,036.8,029.9,22.0,0000.0,0022.52,0005.76,0004.14
2023-09-30 05:50:00,SystemResetWarning,0828.6,5.00,000.00,028.2,025.9,000.0,036.8,029.9,21.9,0000.0,0023.16,0005.79,0004.16
2023-09-30 05:51:00,SystemResetWarning,0828.6,4.99,000.00,028.2,026.2,000.0,036.8,030.0,21.3,0000.0,0022.33,0005.80,0004.16
2023-09-30 05:52:00,SystemResetWarning,0828.6,4.99,000.00,028.2,026.4,000.0,036.8,030.0,21.2,0000.0,0020.57,0005.77,0004.17
2023-09-30 05:53:00,SystemResetWarning,0828.6,5.01,000.00,028.3,026.6,000.0,036.8,030.1,20.8,0000.0,0019.80,0005.71,0004.16
2023-09-30 05:54:00,SystemResetWarning,0828.6,5.00,000.00,028.3,026.8,000.0,036.8,030.1,21.0,0000.0,0019.14,0005.67,0004.15
2023-09-30 05:55:00,SystemResetWarning,0828.6,5.00,000.00,028.3,026.9,000.0,036.8,030.1,20.9,0000.0,0019.23,0005.66,0004.15
2023-09-30 05:56:00,SystemResetWarning,0828.6,4.99,000.00,028.3,027.0,000.0,036.8,030.2,21.0,0000.0,0020.02,0005.68,0004.14
2023-09-30 05:57:00,SystemResetWarning,0828.6,4.99,000.00,028.4,027.1,000.0,036.8,030.2,21.0,0000.0,0019.98,0005.66,0004.13
2023-09-30 05:58:00,SystemResetWarning,0828.6,5.01,000.00,028.4,027.2,000.0,036.9,030.2,20.7,0000.0,0020.07,0005.63,0004.13
2023-09-30 05:59:00,SystemResetWarning,0828.5,5.02,000.00,028.4,027.3,000.0,036.9,030.3,20.5,0000.0,0019.70,0005.61,0004.14
